WAT4970 ENBR-ENGM

Flight info

Callsign WAT4970
Flight time N/A
Altitude 31000
Route GOKAB DCT ULVAN DCT ADOPI
Aircraft E195/M-SDE3GILORVW/S

Departure

Time 2026-04-28 17:02
Airport Bergen Airport, Flesland (ENBR)

Arrival

Time N/A
Airport Oslo-Gardermoen International Airport (ENGM)
Time Latitude Longitude Altitude Speed Heading
2026-04-28 16:27 60.28776 5.22881 176 ft 0 kts 80°
2026-04-28 16:33 60.28776 5.22880 176 ft 0 kts 80°
2026-04-28 16:35 60.28776 5.22879 176 ft 0 kts 80°
2026-04-28 16:36 60.28775 5.22875 176 ft 0 kts 80°
2026-04-28 16:43 60.28773 5.22847 175 ft 4 kts 79°
2026-04-28 16:43 60.28776 5.22872 176 ft 0 kts 79°
2026-04-28 16:44 60.28776 5.22882 176 ft 0 kts 79°
2026-04-28 16:52 60.28775 5.22875 176 ft 2 kts 79°
2026-04-28 16:52 60.28773 5.22846 175 ft 2 kts 80°
2026-04-28 16:52 60.28770 5.22816 174 ft 2 kts 79°
2026-04-28 16:53 60.28768 5.22795 173 ft 0 kts 80°
2026-04-28 16:55 60.28768 5.22797 173 ft 0 kts 91°
2026-04-28 16:55 60.28755 5.22803 173 ft 6 kts 201°
2026-04-28 16:55 60.28721 5.22701 169 ft 11 kts 260°
2026-04-28 16:55 60.28704 5.22511 167 ft 14 kts 255°
2026-04-28 16:56 60.28686 5.22397 165 ft 9 kts 282°
2026-04-28 16:56 60.28745 5.22335 165 ft 10 kts 351°
2026-04-28 16:56 60.28812 5.22316 166 ft 7 kts 351°
2026-04-28 16:56 60.28838 5.22307 166 ft 0 kts 350°
2026-04-28 16:57 60.28841 5.22306 166 ft 1 kts 350°
2026-04-28 16:57 60.28849 5.22302 166 ft 0 kts 349°
2026-04-28 16:57 60.28859 5.22299 166 ft 9 kts 349°
2026-04-28 16:58 60.28928 5.22337 167 ft 8 kts 79°
2026-04-28 16:58 60.28894 5.22407 168 ft 7 kts 164°
2026-04-28 16:58 60.28839 5.22422 168 ft 8 kts 179°
2026-04-28 16:58 60.28776 5.22346 166 ft 13 kts 200°
2026-04-28 16:59 60.28674 5.22359 164 ft 16 kts 170°
2026-04-28 16:59 60.28550 5.22401 160 ft 19 kts 170°
2026-04-28 16:59 60.28420 5.22444 156 ft 15 kts 171°
2026-04-28 16:59 60.28319 5.22480 153 ft 7 kts 169°
2026-04-28 17:00 60.28283 5.22445 151 ft 5 kts 248°
2026-04-28 17:00 60.28278 5.22393 150 ft 0 kts 264°
2026-04-28 17:00 60.28278 5.22391 150 ft 1 kts 264°
2026-04-28 17:00 60.28277 5.22366 149 ft 8 kts 264°
2026-04-28 17:01 60.28283 5.22224 143 ft 12 kts 292°
2026-04-28 17:01 60.28339 5.22146 143 ft 3 kts 349°
2026-04-28 17:01 60.28413 5.22121 147 ft 41 kts 352°
2026-04-28 17:01 60.29024 5.21920 160 ft 131 kts 350°
2026-04-28 17:02 60.30075 5.21579 556 ft 168 kts 350°
2026-04-28 17:02 60.31224 5.21195 1674 ft 168 kts 350°
2026-04-28 17:02 60.32385 5.20801 2431 ft 183 kts 351°
2026-04-28 17:02 60.33722 5.20350 3094 ft 207 kts 351°
2026-04-28 17:03 60.36819 5.19302 4672 ft 246 kts 351°
2026-04-28 17:03 60.38506 5.18732 5710 ft 246 kts 351°
2026-04-28 17:03 60.40205 5.18156 6464 ft 258 kts 351°
2026-04-28 17:04 60.43742 5.16955 8771 ft 259 kts 352°
2026-04-28 17:04 60.45489 5.16362 9902 ft 256 kts 352°
2026-04-28 17:05 60.48844 5.17450 11778 ft 265 kts 40°
2026-04-28 17:05 60.49785 5.20681 12621 ft 282 kts 70°
2026-04-28 17:05 60.50105 5.24657 13516 ft 288 kts 74°
2026-04-28 17:06 60.49437 5.32764 15169 ft 327 kts 120°
2026-04-28 17:06 60.47637 5.35897 15579 ft 360 kts 149°